Weather Roundup
Issued by NWS Chicago, IL

Home | Current Version | Previous Version | Text Only | Print | Product List | Glossary Off
Versions: 1 2 3 4 5 6 7 8 9 10 11 12 13 14 15 16 17 18 19 20 21 22 23 24 25 26 27 28 29 30 31 32 33 34 35 36 37 38 39 40 41 42 43 44 45 46 47 48 49 50

000
NZUS59 KLOT 300503
HRRLOT

CHICAGO AREA WEATHER ROUNDUP
NATIONAL WEATHER SERVICE CHICAGO/ROMEOVILLE IL
1200 AM CDT THU MAR 30 2017

NOTE: "FAIR" INDICATES FEW OR NO CLOUDS BELOW 12,000 FEET WITH NO
SIGNIFICANT WEATHER AND/OR OBSTRUCTIONS TO VISIBILITY.

* THESE STATIONS ARE NOT UNDER NWS QUALITY CONTROL. THEY ALSO MAY NOT
  REPORT WEATHER SUCH AS PRECIPITATION OR FOG.

ILZ005-006-012>014-019>023-300600-
NORTHEAST ILLINOIS

CITY           SKY/WX    TMP DP  RH WIND       PRES   REMARKS
OHARE          LGT RAIN  45  38  76 E17G25    30.00F
MIDWAY         LGT RAIN  45  40  82 E20G26    30.01F FOG
AURORA         CLOUDY    45  39  79 E24G32    29.95F
LANSING*       LGT RAIN  46  38  75 E13G20    29.99F
JOLIET*        CLOUDY    46  40  81 E16G22    29.95F
WAUKEGAN       CLOUDY    41  37  86 E20G29    30.04F
DUPAGE AIRPORT LGT RAIN  44  41  89 NE18      29.98F
WHEELING       LGT RAIN  42  39  89 E13G22    30.05F
KANKAKEE*      CLOUDY    46  37  71 E23G29    29.92F
MORRIS*        LGT RAIN  45  39  81 E17       29.93F
LEWIS AIRPORT* LGT RAIN  43  42  94 E20G26    29.94F
NORTHERLY ISL    N/A     41  38  89 NE10        N/A
$$

WIZ051-052-058>065-066-070>072-300600-
SOUTHEAST WISCONSIN

CITY           SKY/WX    TMP DP  RH WIND       PRES   REMARKS
MILWAUKEE      CLOUDY    40  36  86 NE14      30.09F
KENOSHA*       LGT RAIN  40  37  89 E18       30.06F
RACINE*        LGT RAIN  41  36  82 E18G24    30.09F
WAUKESHA       LGT RAIN  36  34  93 NE12G20   30.09F
WEST BEND      CLOUDY    36  36 100 NE8       30.10F
$$

INZ001>003-010>013-019-020-300600-
NORTHWEST INDIANA

CITY           SKY/WX    TMP DP  RH WIND       PRES   REMARKS
GARY*          LGT RAIN  45  39  79 NE15      30.00F
MICHIGAN CITY* NOT AVBL
RENSSELAER*    NOT AVBL
VALPARAISO     CLOUDY    47  36  65 E18       30.00F
$$

LMZ740>746-300600-
SOUTHERN LAKE MICHIGAN

STATION/POSITION TIME  SKY/WX   TEMP WIND        PRES    VSBY
                                AIR  DIR/SP/G
                 (UTC)          (F)  (DEG/KT/KT) (MB)    (MI)
HARRISON CRIB    0440            42   50/ 17/ 18   N/A
BURNHAM HARBOR   0500            41   30/ 11/ 15   N/A
CALUMET HARBOR   0430            42   60/ 15/ 17 1015.9F
BURNS HARBOR     0440            48   80/ 14/ 22 1016.9F
MICHIGAN CITY    0440            47   70/ 14/ 18   N/A
$$

ABBREVIATIONS USED IN REMARKS
   TC - TEMPERATURE IN CELSIUS
  WCI - WIND CHILL INDEX
   HX - HEAT INDEX
  VSB - VISIBILITY
$$



USA.gov is the U.S. government's official web portal to all federal, state and local government web resources and services.